Terminal Aerodrome Forecast
Issued by NWS

Home | Current Version | Previous Version | Graphics & Text | Print | Product List | Glossary Off
Versions: 1 2 3 4 5 6 7 8 9 10 11 12 13 14 15 16 17 18 19 20 21 22 23 24 25 26 27 28

000
FTUS43 KDDC 150332 AAA
TAFGCK
TAF AMD
KGCK 150332Z 1504/1524 35018G28KT P6SM SCT009 BKN012
      TEMPO 1504/1506 BKN009
     FM151500 32023G32KT P6SM BKN030=

USA.gov is the U.S. government's official web portal to all federal, state and local government web resources and services.